| time (UTC) | temp C | wind direction | speed KPH | gust KPH | rain 1hr cm | rain 24hr cm | rain mn cm | humidity % | barometer mb |
| 20260906104548 | 26 | 253 | 0.0 | 0.0 | 0.00 | 0.00 | 0.00 | 92 | 1010.4 |
| 20260906103042 | 26 | 253 | 0.0 | 0.0 | 0.00 | 0.00 | 0.00 | 92 | 1010.4 |
| 20260906101541 | 26 | 253 | 0.0 | 0.0 | 0.00 | 0.00 | 0.00 | 92 | 1010.3 |
| 20260906100044 | 26 | 253 | 0.0 | 0.0 | 0.00 | 0.00 | 0.00 | 91 | 1010.2 |
| 20260906094605 | 26 | 253 | 0.0 | 0.0 | 0.00 | 0.00 | 0.00 | 91 | 1010.2 |
| 20260906093039 | 26 | 253 | 0.0 | 0.0 | 0.00 | 0.00 | 0.00 | 91 | 1010.1 |
| 20260906091543 | 26 | 253 | 0.0 | 0.0 | 0.00 | 0.00 | 0.00 | 90 | 1010.0 |
| 20260906090037 | 26 | 253 | 0.0 | 0.0 | 0.00 | 0.00 | 0.00 | 90 | 1010.1 |
| 20260906084539 | 26 | 253 | 0.0 | 0.0 | 0.00 | 0.00 | 0.00 | 91 | 1010.1 |
| 20260906083038 | 26 | 253 | 0.0 | 0.0 | 0.00 | 0.00 | 0.00 | 91 | 1009.9 |
| 20260906081545 | 26 | 253 | 0.0 | 0.0 | 0.00 | 0.00 | 0.00 | 90 | 1010.1 |
| 20260906080036 | 26 | 253 | 0.0 | 0.0 | 0.00 | 0.00 | 0.00 | 91 | 1010.2 |
| 20260906074534 | 26 | 253 | 0.0 | 0.0 | 0.00 | 0.00 | 0.00 | 90 | 1010.1 |
| 20260906073031 | 26 | 255 | 0.0 | 0.0 | 0.00 | 0.00 | 0.00 | 90 | 1010.2 |
| 20260906071532 | 27 | 238 | 0.0 | 4.8 | 0.00 | 0.00 | 0.00 | 90 | 1010.1 |
| 20260906070030 | 27 | 269 | 0.0 | 1.6 | 0.00 | 0.00 | 0.00 | 90 | 1010.3 |
| 20260906064530 | 27 | 250 | 0.0 | 3.2 | 0.00 | 0.00 | 0.00 | 90 | 1010.3 |
| 20260906063033 | 27 | 192 | 0.0 | 3.2 | 0.00 | 0.00 | 0.00 | 90 | 1010.3 |
| 20260906061535 | 27 | 246 | 0.0 | 1.6 | 0.00 | 0.00 | 0.00 | 89 | 1010.4 |
| 20260906060027 | 27 | 187 | 0.0 | 1.6 | 0.00 | 0.00 | 0.00 | 89 | 1010.3 |
| 20260906054525 | 27 | 136 | 0.0 | 0.0 | 0.00 | 0.00 | 0.00 | 89 | 1010.2 |
| 20260906053024 | 27 | 136 | 0.0 | 0.0 | 0.00 | 0.00 | 0.00 | 90 | 1010.3 |
| 20260906051523 | 27 | 136 | 0.0 | 0.0 | 0.00 | 0.00 | 0.00 | 89 | 1010.4 |
| 20260906050022 | 27 | 101 | 0.0 | 0.0 | 0.00 | 0.00 | 0.00 | 89 | 1010.4 |
| 20260906044527 | 27 | 101 | 0.0 | 0.0 | 0.00 | 0.00 | 0.00 | 89 | 1010.4 |
| 20260906043020 | 27 | 101 | 0.0 | 0.0 | 0.00 | 0.00 | 0.00 | 89 | 1010.5 |
| 20260906041520 | 27 | 101 | 0.0 | 0.0 | 0.00 | 0.00 | 0.00 | 88 | 1010.5 |
| 20260906040024 | 27 | 101 | 0.0 | 0.0 | 0.00 | 0.00 | 0.00 | 88 | 1010.6 |
| 20260906034621 | 28 | 101 | 0.0 | 0.0 | 0.00 | 0.00 | 0.00 | 88 | 1010.7 |
| 20260906033018 | 28 | 101 | 0.0 | 0.0 | 0.00 | 0.00 | 0.00 | 88 | 1010.7 |
| 20260906031534 | 28 | 113 | 0.0 | 0.0 | 0.00 | 0.00 | 0.00 | 87 | 1010.6 |
| 20260906030017 | 28 | 113 | 0.0 | 0.0 | 0.00 | 0.00 | 0.00 | 86 | 1010.7 |
| 20260906024516 | 28 | 113 | 0.0 | 0.0 | 0.00 | 0.00 | 0.00 | 85 | 1010.4 |
| 20260906023019 | 28 | 113 | 0.0 | 0.0 | 0.00 | 0.00 | 0.00 | 85 | 1010.3 |
| 20260906021516 | 28 | 113 | 0.0 | 0.0 | 0.00 | 0.00 | 0.00 | 85 | 1009.9 |
| 20260906020016 | 28 | 113 | 0.0 | 0.0 | 0.00 | 0.00 | 0.00 | 84 | 1009.8 |
| 20260906014515 | 28 | 113 | 0.0 | 0.0 | 0.00 | 0.00 | 0.00 | 84 | 1009.7 |
| 20260906013014 | 28 | 113 | 0.0 | 0.0 | 0.00 | 0.00 | 0.00 | 83 | 1009.5 |
| 20260906011516 | 29 | 113 | 0.0 | 0.0 | 0.00 | 0.00 | 0.00 | 83 | 1009.5 |
| 20260906010014 | 29 | 104 | 0.0 | 0.0 | 0.00 | 0.00 | 0.00 | 83 | 1009.4 |
| 20260906004513 | 29 | 111 | 0.0 | 1.6 | 0.00 | 0.00 | 0.00 | 82 | 1009.6 |
| 20260906003021 | 29 | 107 | 0.0 | 1.6 | 0.00 | 0.00 | 0.00 | 82 | 1009.6 |
| 20260906001512 | 30 | 100 | 0.0 | 4.8 | 0.00 | 0.00 | 0.00 | 81 | 1009.8 |
| 20260906000012 | 30 | 104 | 0.0 | 1.6 | 0.00 | 0.00 | 0.00 | 82 | 1010.1 |
| 20260905234511 | 30 | 119 | 0.0 | 3.2 | 0.00 | 0.00 | 0.00 | 81 | 1010.1 |
| 20260905233012 | 30 | 60 | 0.0 | 3.2 | 0.00 | 0.00 | 0.00 | 81 | 1009.9 |
| 20260905231511 | 30 | 123 | 0.0 | 4.8 | 0.00 | 0.00 | 0.00 | 81 | 1009.7 |
| 20260905230012 | 30 | 108 | 0.0 | 1.6 | 0.00 | 0.00 | 0.00 | 80 | 1009.8 |
| 20260905224509 | 30 | 127 | 0.0 | 3.2 | 0.00 | 0.00 | 0.00 | 80 | 1009.8 |
| 20260905223028 | 30 | 113 | 0.0 | 4.8 | 0.00 | 0.00 | 0.00 | 79 | 1009.8 |
| 20260905221527 | 31 | 119 | 0.0 | 8.0 | 0.00 | 0.00 | 0.00 | 78 | 1009.7 |
| 20260905220008 | 31 | 79 | 0.0 | 4.8 | 0.00 | 0.00 | 0.00 | 76 | 1009.6 |
| 20260905214506 | 31 | 96 | 1.6 | 11.3 | 0.00 | 0.00 | 0.00 | 73 | 1009.6 |
| 20260905213005 | 32 | 142 | 0.0 | 0.0 | 0.00 | 0.00 | 0.00 | 68 | 1009.8 |
| 20260905211512 | 32 | 142 | 0.0 | 0.0 | 0.00 | 0.00 | 0.00 | 67 | 1009.8 |
| 20260905210005 | 32 | 142 | 0.0 | 0.0 | 0.00 | 0.00 | 0.00 | 68 | 1009.9 |
| 20260905204501 | 32 | 245 | 0.0 | 3.2 | 0.00 | 0.00 | 0.00 | 68 | 1010.1 |
| 20260905203058 | 32 | 171 | 0.0 | 1.6 | 0.00 | 0.00 | 0.00 | 71 | 1010.3 |
| 20260905201603 | 31 | 217 | 0.0 | 3.2 | 0.00 | 0.00 | 0.00 | 74 | 1010.4 |
| 20260905200113 | 31 | 182 | 0.0 | 3.2 | 0.00 | 0.00 | 0.00 | 75 | 1010.5 |
| 20260905194552 | 31 | 192 | 0.0 | 1.6 | 0.00 | 0.94 | 0.00 | 76 | 1010.4 |
| 20260905193051 | 30 | 182 | 0.0 | 1.6 | 0.00 | 0.94 | 0.00 | 76 | 1010.6 |
| 20260905191552 | 30 | 182 | 0.0 | 3.2 | 0.00 | 0.94 | 0.00 | 77 | 1011.0 |
| 20260905190051 | 31 | 67 | 0.0 | 3.2 | 0.00 | 0.94 | 0.00 | 77 | 1011.3 |
| 20260905184552 | 31 | 147 | 0.0 | 3.2 | 0.00 | 0.99 | 0.00 | 76 | 1011.3 |
| 20260905183050 | 30 | 85 | 0.0 | 3.2 | 0.00 | 0.99 | 0.00 | 77 | 1011.5 |
| 20260905181548 | 30 | 86 | 0.0 | 4.8 | 0.00 | 0.99 | 0.00 | 79 | 1011.7 |
| 20260905180046 | 28 | 225 | 0.0 | 4.8 | 0.00 | 0.99 | 0.00 | 80 | 1012.0 |
| 20260905174544 | 28 | 154 | 0.0 | 6.4 | 0.00 | 0.99 | 0.00 | 80 | 1012.2 |
| 20260905173044 | 28 | 102 | 0.0 | 11.3 | 0.00 | 0.99 | 0.00 | 77 | 1012.7 |
| 20260905171557 | 28 | 334 | 3.2 | 14.5 | 0.00 | 0.99 | 0.00 | 76 | 1012.9 |
| 20260905170042 | 30 | 211 | 0.0 | 8.0 | 0.00 | 0.99 | 0.00 | 80 | 1013.0 |
| 20260905164541 | 30 | 171 | 1.6 | 9.7 | 0.00 | 0.99 | 0.00 | 77 | 1012.8 |
| 20260905163038 | 30 | 246 | 1.6 | 9.7 | 0.00 | 0.99 | 0.00 | 76 | 1012.6 |
| 20260905161540 | 30 | 56 | 8.0 | 16.1 | 0.00 | 0.99 | 0.00 | 78 | 1012.5 |
| 20260905160044 | 30 | 83 | 4.8 | 17.7 | 0.00 | 0.99 | 0.00 | 79 | 1012.5 |
| 20260905154548 | 31 | 292 | 1.6 | 6.4 | 0.00 | 0.99 | 0.00 | 76 | 1012.4 |
| 20260905153031 | 31 | 248 | 1.6 | 6.4 | 0.00 | 0.99 | 0.00 | 78 | 1012.3 |
| 20260905151531 | 31 | 40 | 1.6 | 6.4 | 0.00 | 0.99 | 0.00 | 79 | 1012.3 |
| 20260905150028 | 31 | 60 | 1.6 | 6.4 | 0.00 | 0.99 | 0.00 | 79 | 1012.3 |
| 20260905144537 | 30 | 15 | 0.0 | 4.8 | 0.00 | 0.99 | 0.00 | 81 | 1012.4 |
| 20260905143024 | 30 | 319 | 0.0 | 4.8 | 0.00 | 0.99 | 0.00 | 80 | 1012.3 |
| 20260905141524 | 30 | 325 | 0.0 | 3.2 | 0.00 | 0.99 | 0.00 | 83 | 1012.3 |
| 20260905140016 | 29 | 21 | 0.0 | 3.2 | 0.00 | 0.99 | 0.00 | 86 | 1012.2 |
| 20260905134512 | 28 | 319 | 0.0 | 3.2 | 0.00 | 0.99 | 0.00 | 89 | 1012.0 |
| 20260905133009 | 27 | 2 | 0.0 | 3.2 | 0.00 | 0.99 | 0.00 | 91 | 1012.2 |
| 20260905131505 | 27 | 20 | 1.6 | 4.8 | 0.00 | 0.99 | 0.00 | 93 | 1012.0 |
| 20260905130003 | 26 | 315 | 0.0 | 0.0 | 0.00 | 0.99 | 0.00 | 94 | 1011.9 |
| 20260905124503 | 26 | 315 | 0.0 | 0.0 | 0.00 | 0.99 | 0.00 | 94 | 1011.7 |
| 20260905123105 | 26 | 315 | 0.0 | 0.0 | 0.00 | 0.99 | 0.00 | 94 | 1011.5 |
| 20260905121556 | 25 | 315 | 0.0 | 0.0 | 0.00 | 0.99 | 0.00 | 94 | 1011.5 |
| 20260905120055 | 25 | 315 | 0.0 | 0.0 | 0.00 | 0.99 | 0.00 | 94 | 1011.2 |
| 20260905114608 | 26 | 315 | 0.0 | 0.0 | 0.00 | 0.99 | 0.00 | 94 | 1011.1 |
| 20260905113053 | 26 | 289 | 0.0 | 0.0 | 0.00 | 0.99 | 0.00 | 94 | 1011.0 |
| 20260905111605 | 26 | 289 | 0.0 | 0.0 | 0.00 | 0.99 | 0.00 | 94 | 1010.8 |
| 20260905110049 | 25 | 267 | 0.0 | 0.0 | 0.00 | 0.99 | 0.00 | 94 | 1010.6 |